This is the latest recevied weather packets stored in our database for station/object K9RCP-20. If no packets are shown the sender has not sent any weather packets the latest 10 day(s).
| Time | Temp. | Humidity | Pressure | Rain* | Wind** | Luminosity | Snow |
|---|---|---|---|---|---|---|---|
| 1778371296 | 26.67° C | 25% | 1012.6 hPa | 0 mm | - | 401 W/m² | - |
| 1778370992 | 26.11° C | 27% | 1012.5 hPa | 0 mm | - | 321 W/m² | - |
| 1778370689 | 26.67° C | 27% | 1012.3 hPa | 0 mm | - | 210 W/m² | - |
| 1778370385 | 27.22° C | 26% | 1012.6 hPa | 0 mm | - | 380 W/m² | - |
| 1778370083 | 26.67° C | 26% | 1012.4 hPa | 0 mm | - | 430 W/m² | - |
| 1778369780 | 27.22° C | 26% | 1012.5 hPa | 0 mm | - | 314 W/m² | - |
| 1778369477 | 26.67° C | 28% | 1012.3 hPa | 0 mm | - | 296 W/m² | - |
| 1778369173 | 28.33° C | 27% | 1012.8 hPa | 0 mm | - | 358 W/m² | - |
| 1778368871 | 27.78° C | 24% | 1012.8 hPa | 0 mm | - | 473 W/m² | - |
| 1778368567 | 27.78° C | 27% | 1012.8 hPa | 0 mm | - | 474 W/m² | - |
| 1778368265 | 27.22° C | 25% | 1012.9 hPa | 0 mm | - | 490 W/m² | - |
| 1778367961 | 27.22° C | 26% | 1012.9 hPa | 0 mm | - | 466 W/m² | - |
| 1778367659 | 26.11° C | 28% | 1012.7 hPa | 0 mm | - | 535 W/m² | - |
| 1778367354 | 26.11° C | 29% | 1013 hPa | 0 mm | - | 316 W/m² | - |
| 1778367050 | 26.67° C | 30% | 1012.8 hPa | 0 mm | - | 421 W/m² | - |
| 1778366745 | 27.22° C | 30% | 1013.1 hPa | 0 mm | - | 517 W/m² | - |
| 1778366443 | 27.22° C | 29% | 1013.3 hPa | 0 mm | - | 557 W/m² | - |
| 1778366139 | 26.11° C | 30% | 1013.4 hPa | 0 mm | - | 540 W/m² | - |
| 1778365837 | 27.22° C | 30% | 1013.6 hPa | 0 mm | - | 566 W/m² | - |
| 1778365533 | 27.22° C | 31% | 1013.6 hPa | 0 mm | - | 602 W/m² | - |
| 1778365229 | 26.67° C | 33% | 1013.9 hPa | 0 mm | - | 608 W/m² | - |
| 1778364925 | 27.22° C | 33% | 1013.9 hPa | 0 mm | - | 590 W/m² | - |
| 1778364621 | 26.67° C | 32% | 1013.9 hPa | 0 mm | - | 585 W/m² | - |
| 1778364317 | 27.22° C | 34% | 1014.1 hPa | 0 mm | - | 597 W/m² | - |
| 1778364014 | 27.22° C | 34% | 1014.3 hPa | 0 mm | - | 617 W/m² | - |
* Rain latest hour (hover to see other rain measurements)
** Current wind speed in m/s (hover to see current wind gust speed)